User: anonymous   Login
Location: Luz Observatory
(34.5000°N, 117.2833°W)
Time: 23:27:02
(UTC-07:00)
Language:

Okean 3 Rocket - Orbit

View from above orbital plane
View from above orbital plane
View from above satellite
View from above satellite

Ground track
Ground track

The orbit data is extracted from the following two-line orbital elements,

1 21398U 91039B   17264.63652892 +.00000070 +00000-0 +62314-5 0  9994
2 21398 082.5226 136.4198 0020336 223.7743 192.6774 14.79676461397134
Epoch (UTC): 21 September 2017 15:16:36
Eccentricity: 0.0020336
inclination: 82.5226°
perigee height: 616 km
apogee height: 644 km
right ascension of ascending node: 136.4198°
argument of perigee: 223.7743°
revolutions per day: 14.79676461
mean anomaly at epoch: 192.6774°
orbit number at epoch: 39713

The dashed part of the orbit path shows where the satellite is in the earth's shadow,  

DLR